Regional Weather Roundup
Issued by NWS

Home | Current Version | Previous Version | Graphics & Text | Print | Product List | Glossary On
Versions: 1 2 3 4 5 6 7 8 9 10 11 12 13 14 15 16 17 18 19 20 21 22 23 24 25 26 27 28 29 30 31 32 33 34 35 36 37 38 39 40 41 42 43 44 45 46 47 48 49 50
718
ASUS45 KCYS 241110
RWRWY

WYOMING REGIONAL WEATHER ROUNDUP
NATIONAL WEATHER SERVICE CHEYENNE WY
400 AM MST FRI FEB 24 2017

NOTE:  "FAIR" INDICATES FEW OR NO CLOUDS BELOW 12,000 FEET
WITH NO SIGNIFICANT WEATHER AND/OR OBSTRUCTIONS TO VISIBILITY.

WYZ001-241200-
YELLOWSTONE NATIONAL PARK

CITY           SKY/WX    TMP DP  RH WIND       PRES   REMARKS
LK YELLOWSTONE   N/A      2   0  91 CALM      29.76S
W YELLOWSTONE  NOT AVBL

$$
WYZ002>013-054>058-071-098>099-241200-
NORTHERN WYOMING

CITY           SKY/WX    TMP DP  RH WIND       PRES   REMARKS
JACKSON        CLOUDY    16  16 100 S3        29.79S
CODY           MOCLDY    17  13  84 S3        29.87F
GREYBULL       CLOUDY    22  19  89 CALM      29.91S
WORLAND        CLOUDY    19  19 100 SW3       29.90S
SHERIDAN       CLOUDY    22  17  81 SE16      29.92F WCI   8
BUFFALO        LGT SNOW  20  15  81 S7        29.89F WCI  11
GILLETTE       CLOUDY    22  19  89 E8        29.92S FOG     WCI  12
HULETT         CLOUDY    23  21  93 MISG      29.95S FOG
NEWCASTLE      LGT SNOW  21  21 100 CALM      29.94R

$$
WYZ014>020-022>026-101>103-241200-
CENTRAL WYOMING

CITY           SKY/WX    TMP DP  RH WIND       PRES   REMARKS
BIG PINEY      CLOUDY    12   7  80 W6        29.77S WCI   3
PINEDALE       LGT SNOW  12  10  92 CALM      29.78R
DUBOIS         FLURRIES  12   9  85 CALM      29.76S
LANDER         LGT SNOW  17  16  95 CALM      29.85R FOG
RIVERTON       LGT SNOW  17  15  92 CALM      29.86S FOG
CASPER         CLOUDY    12  10  92 NE9       29.86R WCI   0
DOUGLAS        CLOUDY    11   8  88 CALM      29.89S FOG

$$
WYZ021-027>030-104>119-241200-
SOUTHERN WYOMING

CITY           SKY/WX    TMP DP  RH WIND       PRES   REMARKS
EVANSTON       LGT SNOW  14   9  80 W9        29.80R WCI   2
FORT BRIDGER   LGT SNOW  15  15 100 W9        29.82R WCI   3
ROCK SPRINGS   FAIR      13   7  77 CALM      29.79R
DIXON          LGT SNOW  16  13  88 W8        29.79R WCI   5
RAWLINS        LGT SNOW  12   7  80 NE20      29.72S WCI  -6
SARATOGA       CLOUDY    16  10  79 MISG      29.71R
LARAMIE        CLOUDY     4   1  88 W5        29.73S WCI  -5
CHEYENNE       LGT SNOW  12   9  87 N8        29.81R FOG     WCI   0
TORRINGTON     LGT SNOW  19  15  84 NE13      29.90S FOG     WCI   6
PINE BLUFFS    CLOUDY    18  16  93 N6        29.85S WCI   9

$$




USA.gov is the U.S. government's official web portal to all federal, state and local government web resources and services.